Regional Weather Roundup
Issued by NWS

Home | Current Version | Previous Version | Graphics & Text | Print | Product List | Glossary On
Versions: 1 2 3 4 5 6 7 8 9 10 11 12 13 14 15 16 17 18 19 20 21 22 23 24 25 26 27 28 29 30 31 32 33 34 35 36 37 38 39 40 41 42 43 44 45 46 47 48 49 50
000
ASUS43 KMKX 200121
RWRWI

WISCONSIN REGIONAL WEATHER ROUNDUP
NATIONAL WEATHER SERVICE MILWAUKEE/SULLIVAN WI
700 PM CST THU JAN 19 2017

NOTE: "FAIR" INDICATES FEW OR NO CLOUDS BELOW 12,000 FEET WITH NO
SIGNIFICANT WEATHER AND/OR OBSTRUCTIONS TO VISIBILITY.

WIZ001-002-006>008-014>016-023>028-200200-
NORTHWEST WISCONSIN

CITY           SKY/WX    TMP DP  RH WIND       PRES   REMARKS
SUPERIOR ARPT    N/A     31  31 100 CALM      29.76S FOG
ASHLAND        CLEAR     37  31  78 SW5       29.78S WCI  33
HAYWARD        PTCLDY    30  28  92 CALM      29.78S FOG
SIREN          CLOUDY    39  32  75 S7        29.77S WCI  34
CUMBERLAND     CLOUDY    34  32  93 SE5       29.77F WCI  30
RICE LAKE      CLOUDY    36  32  85 SE6       29.78F WCI  31
CHETEK         CLOUDY    37  32  84 CALM      29.78F
LADYSMITH      CLOUDY    36  32  87 SE7       29.80F WCI  30
EAU CLAIRE     CLOUDY    37  32  82 CALM      29.78F
MENOMONIE        N/A    N/A N/A N/A MISG        N/A
NEW RICHMOND   CLOUDY    36  31  84 CALM      29.75F
OSCEOLA        CLOUDY    37  32  82 SE5       29.79F WCI  33
$$

WIZ003>005-009-010-017-018-200200-
NORTH CENTRAL WISCONSIN

CITY           SKY/WX    TMP DP  RH WIND       PRES   REMARKS
MANITOWISH WTR NOT AVBL
ARBOR VITAE    PTCLDY    37  33  87 S3        29.79F
WOODRUFF       PTCLDY    37  33  87 S3        29.79F
RHINELANDER    MOCLDY    35  32  88 S3        29.81F
EAGLE RIVER    CLEAR     34  31  88 S3        29.80S
LAND O LAKES   CLEAR     36  31  83 CALM      29.81S
PHILLIPS       CLEAR     33  30  89 S6        29.79S WCI  28
TOMAHAWK       CLOUDY    32  31  96 CALM      29.82S FOG
MEDFORD        FOG       31  30  98 SE5       29.79F VSB 1   WCI  26
MERRILL        CLOUDY    32  32 100 CALM        N/A  FOG
$$

WIZ029-030-035-036-043>047-200200-
CENTRAL WISCONSIN

CITY           SKY/WX    TMP DP  RH WIND       PRES   REMARKS
WAUSAU         CLOUDY    31  31 100 E7        29.81F FOG     WCI  24
MOSINEE        FOG       32  32 100 NE9       29.82F VSB 1/4 WCI  24
MARSHFIELD     PTCLDY    31  30  96 NE6       29.79F FOG     WCI  25
STEVENS POINT  PTCLDY    31  31 100 E3        29.83F FOG
WAUPACA        CLOUDY    33  31  93 CALM      29.84F FOG
WAUTOMA        CLOUDY    32  30  93 E5        29.83F FOG     WCI  27
WISC RAPIDS    CLOUDY    34  32  92 E3        29.82F
CAMP DOUGLAS   CLOUDY    36  33  89 E7        29.78F WCI  30
$$

WIZ011>013-019>022-031-037>040-048>050-200200-
NORTHEAST WISCONSIN

CITY           SKY/WX    TMP DP  RH WIND       PRES   REMARKS
ANTIGO         FOG       29  29 100 CALM      29.83F VSB 1/4
SHAWANO        FOG       33  32  96 CALM      29.87F VSB 1/2
OCONTO         CLOUDY    32  31  96 CALM      29.87F
STURGEON BAY   FOG       32  31  96 S3        29.88F VSB 1/2
GREEN BAY      FOG       33  33 100 CALM      29.87S VSB 1/4
MANITOWOC      FOG       33  32  96 S5        29.88S VSB 1/4 WCI  29
APPLETON       FOG       30  30 100 NE5       29.83F VSB 1/4 WCI  25
CLINTONVILLE   FOG       32  32 100 NE5       29.84F VSB 1/2 WCI  27
OSHKOSH        FOG       33  31  92 CALM      29.85S VSB 1/4
$$

WIZ032>034-041-042-053>061-200200-
SOUTHWEST WISCONSIN

CITY           SKY/WX    TMP DP  RH WIND       PRES   REMARKS
LA CROSSE      CLOUDY    39  34  82 E8        29.78F WCI  33
SPARTA         LGT RAIN  35  34  96 E3        29.79F
VIROQUA        CLOUDY    34  34 100 SE7       29.77F WCI  28
BOSCOBEL       LGT RAIN  37  35  92 NE3       29.79F FOG
PRAIRIE DU CHI DRIZZLE   36  35  96 CALM      29.78F
PLATTEVILLE    CLOUDY    35  35 100 E9        29.79R WCI  28
$$

WIZ056-057-062-063-064-067-068-200200-
SOUTH CENTRAL WISCONSIN

CITY           SKY/WX    TMP DP  RH WIND       PRES   REMARKS
REEDSBURG      LGT RAIN  35  35 100 CALM      29.81F
BARABOO/DELLS  DRZL/FOG  34  33  96 E3        29.80F VSB 1
LONE ROCK      LGT RAIN  36  34  92 E6        29.81F FOG     WCI  31
MINERAL POINT  LGT RAIN  36  36 100 E7        29.78S WCI  30
MADISON        LGT RAIN  35  34  96 E3        29.82F FOG
MIDDLETON      CLOUDY    36  36 100 CALM      29.81F
WATERTOWN      CLOUDY    35  35 100 CALM      29.82F FOG
MONROE         LGT RAIN  34  34 100 E3        29.79F VSB 1/4
JANESVILLE     LGT RAIN  37  37 100 E9        29.79F FOG     WCI  31
$$

WIZ051-052-058>065-066-070>072-200200-
SOUTHEAST WISCONSIN

CITY           SKY/WX    TMP DP  RH WIND       PRES   REMARKS
MILWAUKEE      LGT RAIN  36  35  96 SE3       29.84F VSB 1/8
WAUKESHA       LGT RAIN  34  34 100 E7        29.84F WCI  28
MILWAUKEE/TIMM DRIZZLE   36  32  87 CALM      29.85F FOG
RACINE         LGT RAIN  37  35  92 SE8       29.85F FOG     WCI  31
KENOSHA        LGT RAIN  37  35  92 E10       29.83F FOG     WCI  30
FOND DU LAC    FOG       34  31  88 NE5       29.83F VSB 1/2 WCI  30
SHEBOYGAN      FOG       32  31  96 CALM      29.86F VSB 1/4
WEST BEND      LGT RAIN  32  32 100 NE3       29.84F
JUNEAU         DRIZZLE   33  33  99 CALM      29.84F
$$

LSZ147-162-200200-
LAKE SUPERIOR

STATION/POSITION TIME  TEMP    WIND        PRES    WAVE
                       AIR SEA DIR/SP/G            HT/PER
                 (UTC) (F)     (DEG/KT/KT) (MB)    (FT/S)
DEVILS ISLAND    0000   34     100/  8/  8 1008.7R
PORT WING        0040   29     170/  3/  4 1008.1S
SAXON HARBOR     0040   33     200/  3/  3 1008.1S
$$

LMZ867-665-643>646-200200-
LAKE MICHIGAN

STATION/POSITION TIME  TEMP    WIND        PRES    WAVE
                       AIR SEA DIR/SP/G            HT/PER
                 (UTC) (F)     (DEG/KT/KT) (MB)    (FT/S)
NORTHPORT PIER   0040   33      CALM  /  5 1012.2F
SISTER BAY       0050   32     210/  7/  7   N/A
ALGOMA LAKESHORE 2339          220/  8/ 10   N/A
KEWAUNEE LAKESHO 0054   32     220/  2/  5 1011.5F
SHEBOYGAN LAKESH 0000   34     190/  5/  5 1012.3R
PORT WASHINGTON  0030   35     190/  5/  6 1012.9S
MILWAUKEE LAKESH 0100   34      10/  1/  1   N/A
KENOSHA   LAKESH 0000   35     110/  5/  8 1011.2
$$

TC  - TEMPERATURE IN CELSIUS
VSB - VISIBILITY IN STATUTE MILES
WCI - WIND CHILL INDEX
HX  - HEAT INDEX




USA.gov is the U.S. government's official web portal to all federal, state and local government web resources and services.